TimeEST,TemperatureF,Dew PointF,Humidity,Sea Level PressureIn,VisibilityMPH,Wind Direction,Wind SpeedMPH,Gust SpeedMPH,PrecipitationIn,Events,Conditions,WindDirDegrees,DateUTC
12:15 AM,23.0,19.4,86,30.00,10.0,Calm,Calm,-,N/A,,Clear,0,2012-12-23 05:15:00
12:55 AM,23.0,19.4,86,29.98,10.0,SE,3.5,-,N/A,,Clear,140,2012-12-23 05:55:00
1:15 AM,23.0,19.4,86,29.97,10.0,Calm,Calm,-,N/A,,Clear,0,2012-12-23 06:15:00
1:35 AM,23.0,19.4,86,29.95,10.0,Calm,Calm,-,N/A,,Clear,0,2012-12-23 06:35:00
1:55 AM,21.2,17.6,86,29.96,10.0,Calm,Calm,-,N/A,,Clear,0,2012-12-23 06:55:00
2:15 AM,21.2,19.4,93,29.95,10.0,Calm,Calm,-,N/A,,Clear,0,2012-12-23 07:15:00
2:35 AM,21.2,17.6,86,29.95,10.0,Calm,Calm,-,N/A,,Clear,0,2012-12-23 07:35:00
2:55 AM,21.2,19.4,93,29.94,10.0,Calm,Calm,-,N/A,,Clear,0,2012-12-23 07:55:00
3:15 AM,21.2,19.4,93,29.93,10.0,Calm,Calm,-,N/A,,Clear,0,2012-12-23 08:15:00
3:35 AM,23.0,19.4,86,29.93,10.0,Calm,Calm,-,N/A,,Clear,0,2012-12-23 08:35:00
3:55 AM,21.2,19.4,93,29.93,10.0,Calm,Calm,-,N/A,,Clear,0,2012-12-23 08:55:00
4:15 AM,21.2,17.6,86,29.91,10.0,Calm,Calm,-,N/A,,Clear,0,2012-12-23 09:15:00
4:35 AM,21.2,19.4,93,29.91,10.0,Calm,Calm,-,N/A,,Clear,0,2012-12-23 09:35:00
4:55 AM,21.2,17.6,86,29.90,10.0,Calm,Calm,-,N/A,,Clear,0,2012-12-23 09:55:00
5:15 AM,21.2,19.4,93,29.90,10.0,Calm,Calm,-,N/A,,Clear,0,2012-12-23 10:15:00
5:35 AM,21.2,17.6,86,29.90,10.0,Calm,Calm,-,N/A,,Clear,0,2012-12-23 10:35:00
6:15 AM,21.2,17.6,86,29.90,10.0,Calm,Calm,-,N/A,,Clear,0,2012-12-23 11:15:00
6:35 AM,19.4,17.6,93,29.91,7.0,Calm,Calm,-,N/A,,Clear,0,2012-12-23 11:35:00
6:55 AM,19.4,17.6,93,29.92,7.0,Calm,Calm,-,N/A,,Clear,0,2012-12-23 11:55:00
7:15 AM,19.4,17.6,93,29.92,7.0,Calm,Calm,-,N/A,,Clear,0,2012-12-23 12:15:00
8:15 AM,19.4,17.6,93,29.93,4.0,Calm,Calm,-,N/A,,Clear,0,2012-12-23 13:15:00
8:35 AM,19.4,17.6,93,29.93,5.0,Calm,Calm,-,N/A,,Clear,0,2012-12-23 13:35:00
8:55 AM,19.4,17.6,93,29.93,5.0,Calm,Calm,-,N/A,,Clear,0,2012-12-23 13:55:00
9:15 AM,21.2,19.4,93,29.93,5.0,Calm,Calm,-,N/A,,Clear,0,2012-12-23 14:15:00
9:35 AM,23.0,21.2,93,29.94,7.0,Calm,Calm,-,N/A,,Clear,0,2012-12-23 14:35:00
10:15 AM,26.6,23.0,86,29.96,10.0,Calm,Calm,-,N/A,,Clear,0,2012-12-23 15:15:00
10:35 AM,28.4,23.0,80,29.96,10.0,Calm,Calm,-,N/A,,Clear,0,2012-12-23 15:35:00
10:55 AM,30.2,23.0,75,29.97,10.0,Calm,Calm,-,N/A,,Clear,0,2012-12-23 15:55:00
11:15 AM,30.2,26.6,86,29.97,10.0,North,3.5,-,N/A,,Clear,350,2012-12-23 16:15:00
11:35 AM,32.0,26.6,80,29.97,10.0,NNW,5.8,-,N/A,,Clear,340,2012-12-23 16:35:00
11:55 AM,32.0,26.6,80,29.97,7.0,NNW,5.8,-,N/A,,Scattered Clouds,340,2012-12-23 16:55:00
12:15 PM,32.0,28.4,87,29.97,10.0,North,4.6,-,N/A,,Mostly Cloudy,350,2012-12-23 17:15:00
1:15 PM,32.0,28.4,87,29.97,10.0,North,8.1,-,N/A,,Mostly Cloudy,10,2012-12-23 18:15:00
1:35 PM,33.8,28.4,81,29.96,10.0,North,5.8,-,N/A,,Mostly Cloudy,10,2012-12-23 18:35:00
2:15 PM,33.8,28.4,81,29.95,10.0,NNE,5.8,-,N/A,,Scattered Clouds,20,2012-12-23 19:15:00
2:35 PM,33.8,28.4,81,29.94,10.0,Calm,Calm,-,N/A,,Clear,0,2012-12-23 19:35:00
2:55 PM,33.8,28.4,81,29.95,10.0,NNE,5.8,-,N/A,,Scattered Clouds,30,2012-12-23 19:55:00
3:15 PM,33.8,28.4,81,29.95,10.0,NNE,6.9,-,N/A,,Scattered Clouds,30,2012-12-23 20:15:00
3:35 PM,33.8,26.6,75,29.96,10.0,NNE,5.8,-,N/A,,Clear,30,2012-12-23 20:35:00
3:55 PM,33.8,26.6,75,29.97,10.0,North,3.5,-,N/A,,Clear,350,2012-12-23 20:55:00
4:15 PM,33.8,26.6,75,29.97,10.0,North,3.5,-,N/A,,Clear,350,2012-12-23 21:15:00
4:35 PM,32.0,26.6,80,29.97,10.0,NNW,3.5,-,N/A,,Clear,340,2012-12-23 21:35:00
4:55 PM,32.0,26.6,80,29.98,10.0,NW,3.5,-,N/A,,Clear,320,2012-12-23 21:55:00
5:35 PM,32.0,26.6,80,29.98,10.0,Calm,Calm,-,N/A,,Clear,0,2012-12-23 22:35:00
5:55 PM,32.0,26.6,80,29.98,10.0,Calm,Calm,-,N/A,,Clear,0,2012-12-23 22:55:00
6:15 PM,30.2,26.6,86,29.99,10.0,Calm,Calm,-,N/A,,Clear,0,2012-12-23 23:15:00
6:35 PM,28.4,26.6,93,29.99,10.0,Calm,Calm,-,N/A,,Clear,0,2012-12-23 23:35:00
6:55 PM,30.2,26.6,86,29.99,10.0,NNE,3.5,-,N/A,,Clear,30,2012-12-23 23:55:00
7:15 PM,28.4,26.6,93,30.00,10.0,Calm,Calm,-,N/A,,Clear,0,2012-12-24 00:15:00
7:35 PM,28.4,26.6,93,30.00,10.0,Calm,Calm,-,N/A,,Clear,0,2012-12-24 00:35:00
7:55 PM,28.4,24.8,86,30.01,10.0,NNE,4.6,-,N/A,,Clear,30,2012-12-24 00:55:00
8:15 PM,28.4,24.8,86,30.01,10.0,NNE,4.6,-,N/A,,Clear,30,2012-12-24 01:15:00
8:35 PM,28.4,24.8,86,30.01,10.0,NNE,4.6,-,N/A,,Clear,30,2012-12-24 01:35:00
8:55 PM,28.4,24.8,86,30.01,10.0,ENE,4.6,-,N/A,,Clear,60,2012-12-24 01:55:00
9:15 PM,28.4,24.8,86,30.00,10.0,ENE,4.6,-,N/A,,Clear,70,2012-12-24 02:15:00
9:35 PM,28.4,23.0,80,30.00,10.0,ENE,4.6,-,N/A,,Clear,70,2012-12-24 02:35:00
9:55 PM,28.4,23.0,80,30.00,10.0,ENE,4.6,-,N/A,,Clear,60,2012-12-24 02:55:00
10:15 PM,28.4,23.0,80,29.99,10.0,ENE,5.8,-,N/A,,Clear,60,2012-12-24 03:15:00
10:35 PM,26.6,23.0,86,29.99,10.0,ENE,5.8,-,N/A,,Clear,70,2012-12-24 03:35:00
10:55 PM,26.6,23.0,86,29.98,10.0,East,4.6,-,N/A,,Clear,80,2012-12-24 03:55:00
11:15 PM,26.6,23.0,86,29.98,10.0,ENE,5.8,-,N/A,,Clear,70,2012-12-24 04:15:00
11:35 PM,26.6,23.0,86,29.97,10.0,ENE,5.8,-,N/A,,Clear,70,2012-12-24 04:35:00
11:55 PM,26.6,23.0,86,29.97,10.0,East,6.9,-,N/A,,Clear,80,2012-12-24 04:55:00